User: anonymous   Login
Location: Unspecified
(0.0000°N, 0.0000°E)
Time: 15:01:07
(UTC+00:00)
Language:

IGS RADAR-5 - Orbit

View from above orbital plane
View from above orbital plane
View from above satellite
View from above satellite

Ground track
Ground track

The orbit data is extracted from the following two-line orbital elements,

1 42072U 17015A   19106.84569593 0.00000000  00000-0  00000-0 0    08
2 42072  97.3708 178.5379 0002000   0.6384 359.3614 15.25979800    01
Epoch (UTC): 16 April 2019 20:17:48
Eccentricity: 0.0002000
inclination: 97.3708°
perigee height: 486 km
apogee height: 489 km
right ascension of ascending node: 178.5379°
argument of perigee: 0.6384°
revolutions per day: 15.25979800
mean anomaly at epoch: 359.3614°
orbit number at epoch: 0

The dashed part of the orbit path shows where the satellite is in the earth's shadow,  

DLR